Buffalo, NY

10:36 PM EDT on October 20, 2017 (GMT -0400)
Buffalo Niagara International

Weather History for KBUF - January, 2014

Change the Weather History Date:

Friday, January 31, 2014

  Actual Average Record
Temperature  
Mean Temperature 30 °F 24 °F  
Max Temperature 32 °F 31 °F 62 °F (1988)
Min Temperature 28 °F 18 °F -11 °F (1920)
Degree Days  
Heating Degree Days 35 40  
Month to date heating degree days 1389 1248  
Since 1 July heating degree days 3847 3659  
Cooling Degree Days 0 0  
Month to date cooling degree days 0 0  
Year to date cooling degree days 0 0  
Moisture  
Dew Point 22 °F    
Average Humidity 66    
Maximum Humidity 85    
Minimum Humidity 47    
Precipitation  
Precipitation T in 0.09 in 1.60 in (2002)
Month to date precipitation 3.16 3.18  
Year to date precipitation 3.16 3.18  
Snow  
Snow T in 0.70 in 5.50 in (1982)
Month to date snowfall 42.4 25.3  
Since 1 July snowfall 80.9 61.5  
Snow Depth 6.00 in    
Sea Level Pressure  
Sea Level Pressure 30.06 in    
Wind  
Wind Speed 14 mph (SW)    
Max Wind Speed 32 mph    
Max Gust Speed 44 mph    
Visibility 9 miles    
Events Snow    
T = Trace of Precipitation, MM = Missing Value Source: NWS Daily Summary

Daily Weather History Graph

Daily Weather History Graph

Search for Another Location

Airport or City:

Trip Planner

Search our weather history database for the weather conditions in past years. The results will help you decide how hot, cold, wet, or windy it might be!

Date:

Astronomy

Jan. 31, 2014 Rise Set
Actual Time 7:30 AM EST 5:26 PM EST
Civil Twilight 7:00 AM EST 5:56 PM EST
Nautical Twilight 6:26 AM EST 6:30 PM EST
Astronomical Twilight 5:53 AM EST 7:03 PM EST
Moon 7:36 AM EST (1/31) 6:51 PM EST (1/31)
Length of Visible Light 10h 55m
Length of Day
9h 55m
New Moon, 1% of the Moon is Illuminated
Jan 31
New Moon
Feb 6
First Quarter
Feb 14
Full
Feb 22
Last Quarter
Mar 1
New

Hourly Weather History & Observations

Time (EST) Temp. Windchill Dew Point Humidity Pressure Visibility Wind Dir Wind Speed Gust Speed Precip Events Conditions
12:54 AM 28.9 °F 14.8 °F 16.0 °F 58% 29.91 in 9.0 mi SW 24.2 mph 33.4 mph 0.00 in Snow Light Snow
1:54 AM 28.9 °F 16.1 °F 16.0 °F 58% 29.90 in 10.0 mi WSW 19.6 mph 28.8 mph 0.00 in   Overcast
2:54 AM 28.9 °F 18.2 °F 16.0 °F 58% 29.91 in 10.0 mi SW 13.8 mph - N/A   Overcast
3:54 AM 30.9 °F 19.4 °F 15.1 °F 52% 29.91 in 10.0 mi WSW 17.3 mph 27.6 mph N/A   Overcast
4:54 AM 30.9 °F 19.4 °F 17.1 °F 57% 29.92 in 10.0 mi WSW 17.3 mph 29.9 mph N/A   Overcast
5:54 AM 30.9 °F 19.1 °F 18.0 °F 59% 29.94 in 10.0 mi WSW 18.4 mph 25.3 mph N/A   Overcast
6:54 AM 30.9 °F 18.7 °F 18.0 °F 59% 29.96 in 10.0 mi WSW 19.6 mph 29.9 mph N/A   Overcast
7:25 AM 30.2 °F 17.8 °F 19.4 °F 64% 29.95 in 10.0 mi WSW 19.6 mph 25.3 mph N/A   Overcast
7:54 AM 30.9 °F 19.4 °F 19.0 °F 61% 30.00 in 10.0 mi WSW 17.3 mph 26.5 mph N/A   Overcast
8:54 AM 30.9 °F 19.1 °F 19.0 °F 61% 30.02 in 10.0 mi WSW 18.4 mph 25.3 mph N/A   Overcast
9:54 AM 30.9 °F 18.7 °F 19.0 °F 61% 30.05 in 10.0 mi WSW 19.6 mph 28.8 mph N/A   Overcast
10:06 AM 30.2 °F 18.9 °F 19.4 °F 64% 30.03 in 10.0 mi WSW 16.1 mph 26.5 mph N/A   Overcast
10:54 AM 30.9 °F 19.8 °F 19.9 °F 64% 30.06 in 10.0 mi SW 16.1 mph 25.3 mph N/A   Overcast
11:54 AM 32.0 °F 21.6 °F 21.0 °F 64% 30.07 in 10.0 mi WSW 15.0 mph - 0.00 in Snow Light Snow
12:13 PM 32.0 °F 24.2 °F 21.2 °F 64% 30.04 in 10.0 mi WSW 9.2 mph - 0.00 in   Overcast
12:54 PM 30.9 °F 21.2 °F 23.0 °F 72% 30.06 in 10.0 mi SW 12.7 mph - 0.00 in   Overcast
1:54 PM 30.9 °F 20.7 °F 23.0 °F 72% 30.05 in 10.0 mi WSW 13.8 mph - N/A   Overcast
2:54 PM 32.0 °F 23.0 °F 24.1 °F 73% 30.07 in 10.0 mi SW 11.5 mph 19.6 mph N/A   Mostly Cloudy
3:54 PM 32.0 °F 23.0 °F 24.1 °F 73% 30.11 in 10.0 mi WSW 11.5 mph 19.6 mph N/A   Overcast
4:30 PM 32.0 °F 23.0 °F 24.8 °F 75% 30.09 in 10.0 mi WSW 11.5 mph - N/A   Overcast
4:54 PM 30.9 °F 22.2 °F 25.0 °F 79% 30.12 in 10.0 mi WSW 10.4 mph - N/A   Overcast
5:27 PM 30.2 °F 22.6 °F 24.8 °F 80% 30.10 in 10.0 mi SW 8.1 mph - N/A   Overcast
5:54 PM 30.9 °F 23.5 °F 25.0 °F 79% 30.14 in 10.0 mi SW 8.1 mph - N/A   Overcast
6:54 PM 30.9 °F 22.8 °F 25.0 °F 79% 30.15 in 10.0 mi SW 9.2 mph - N/A   Overcast
7:22 PM 30.2 °F 21.3 °F 24.8 °F 80% 30.12 in 10.0 mi SW 10.4 mph - N/A   Overcast
7:54 PM 30.9 °F 21.7 °F 25.0 °F 79% 30.17 in 10.0 mi SW 11.5 mph - N/A   Overcast
8:54 PM 30.0 °F 21.7 °F 26.1 °F 85% 30.17 in 8.0 mi SW 9.2 mph - N/A   Overcast
9:07 PM 30.2 °F 21.9 °F 26.6 °F 86% 30.14 in 7.0 mi SW 9.2 mph - N/A   Overcast
9:31 PM 30.2 °F 21.3 °F 26.6 °F 86% 30.14 in 6.0 mi SW 10.4 mph - N/A   Overcast
9:54 PM 30.0 °F 20.5 °F 26.1 °F 85% 30.17 in 6.0 mi SW 11.5 mph - N/A   Overcast
10:14 PM 30.2 °F 20.8 °F 26.6 °F 86% 30.15 in 6.0 mi SW 11.5 mph - N/A   Overcast
10:35 PM 30.2 °F 21.9 °F 26.6 °F 86% 30.15 in 6.0 mi WSW 9.2 mph - N/A   Overcast
10:54 PM 30.0 °F 21.1 °F 26.1 °F 85% 30.18 in 6.0 mi WSW 10.4 mph - N/A   Overcast
11:25 PM 30.2 °F 22.6 °F 26.6 °F 86% 30.15 in 6.0 mi SW 8.1 mph - N/A   Overcast
11:54 PM 30.0 °F 23.2 °F 26.1 °F 85% 30.19 in 5.0 mi SW 6.9 mph - N/A   Overcast